[[{"header":{"parameterUnit":"m.s-1","parameterCategory":2,"la1":30.2991,"la2":30.254,"lo1":-89.0895,"lo2":-89.0444,"dy":0.0017,"dx":0.0017,"nx":28,"ny":28,"refTime":"2024-08-27T21:00:00:Z","depth":"0","parameterNumber":2,"parameterNumberName":"U-component_of_CURRENTS"},"data":[0,0,0,0,0,0,0,0,0,0,0,0,0,0,0,0,0,0,0,0,0,0,0,0,0,0,0,0,0,0,0,0,0,0,0,0,0,0,0,0,0,0,0,0,0,0,0,0,0,0,0,0,0,0,0,0,0,0,-0.2455,-0.2456,0,-0.2492,-0.2492,-0.2492,-0.2464,-0.2463,-0.2462,-0.2461,-0.2443,-0.2444,-0.2444,0,0,0,0,0,0,0,0,0,0,0,0,0,-0.2392,-0.2393,-0.2455,-0.2456,-0.2456,-0.2492,-0.2492,-0.2492,-0.2464,-0.2463,-0.2461,-0.246,-0.2443,-0.2444,-0.2444,0,0,0,0,0,0,0,0,0,0,0,0,0,-0.2421,-0.2394,-0.2455,-0.2449,-0.2449,-0.2491,-0.2492,-0.2492,-0.2464,-0.2463,-0.2461,-0.246,-0.2443,-0.2444,-0.2444,-0.2477,0,0,-0.2446,-0.2446,0,0,0,0,0,0,0,0,-0.2419,-0.2423,-0.2449,-0.2449,-0.2449,-0.2474,-0.2464,-0.2485,-0.2464,-0.2455,-0.2461,-0.2459,-0.2451,-0.2451,-0.2458,-0.2476,-0.2476,-0.2446,-0.2447,-0.2447,-0.2447,0,0,0,0,0,0,0,-0.2417,-0.2421,-0.2467,-0.245,-0.245,-0.2455,-0.2457,-0.2468,-0.2458,-0.2456,-0.2455,-0.2464,-0.245,-0.2458,-0.2457,-0.2475,-0.2446,-0.2447,-0.2447,-0.2447,-0.2509,-0.251,0,0,0,0,0,0,-0.2418,-0.2419,-0.2466,-0.2468,-0.2433,-0.2457,-0.2459,-0.2465,-0.2459,-0.2458,-0.2465,-0.2462,-0.2457,-0.2457,-0.2457,-0.2492,-0.2447,-0.2448,-0.2448,-0.2507,-0.2509,-0.251,0,0,0,0,0,0,-0.2417,-0.2422,-0.2464,-0.2447,-0.2453,-0.246,-0.2467,-0.2467,-0.2468,-0.2467,-0.2464,-0.2466,-0.2456,-0.2456,-0.2469,-0.2491,-0.2448,-0.2448,-0.2506,-0.2508,-0.251,-0.2564,0,0,0,0,0,0,-0.2415,-0.2421,-0.2423,-0.2447,-0.2454,-0.2493,-0.2469,-0.2469,-0.2478,-0.2474,-0.2467,-0.2464,-0.2455,-0.2468,-0.2469,-0.2491,-0.2449,-0.2504,-0.2507,-0.2509,-0.2561,-0.2568,-0.2573,0,0,0,0,0,-0.2412,-0.2424,-0.2422,-0.2428,-0.2456,-0.2495,-0.2499,-0.2497,-0.2479,-0.249,-0.2483,-0.2464,-0.2483,-0.247,-0.2471,-0.2493,-0.2503,-0.2506,-0.2509,-0.2558,-0.2566,-0.2573,0,0,0,0,0,0,-0.2419,-0.2424,-0.2422,-0.244,-0.2467,-0.2491,-0.2501,-0.2501,-0.2505,-0.2497,-0.2483,-0.2481,-0.25,-0.2492,-0.2478,-0.2518,-0.249,-0.2493,-0.2527,-0.2534,-0.2541,-0.2533,-0.2449,0,0,0,0,0,-0.2418,-0.2407,-0.244,-0.2452,-0.2468,-0.2483,-0.2496,-0.2501,-0.2512,-0.2512,-0.2507,-0.2505,-0.2516,-0.252,-0.2525,-0.2552,-0.2528,-0.2566,-0.2572,-0.2578,-0.2573,-0.257,-0.2575,-0.2519,-0.2519,-0.2519,0,0,-0.2422,-0.2424,-0.2419,-0.2449,-0.2465,-0.25,-0.2486,-0.2514,-0.2537,-0.2511,-0.253,-0.2527,-0.2528,-0.2554,-0.2562,-0.2549,-0.2581,-0.2581,-0.2586,-0.2578,-0.2573,-0.2578,-0.2583,-0.2521,-0.2521,-0.2521,0,0,-0.2429,-0.2433,-0.2429,-0.2457,-0.2488,-0.2508,-0.2517,-0.2547,-0.2553,-0.2581,-0.2567,-0.2579,-0.2591,-0.2601,-0.2607,-0.2654,-0.2614,-0.2653,-0.2681,-0.2678,-0.2682,-0.2686,-0.2657,-0.2657,-0.2658,-0.2658,-0.2658,0,-0.2447,-0.2438,-0.2441,-0.2465,-0.2491,-0.2513,-0.2545,-0.257,-0.2596,-0.2604,-0.2591,-0.2614,-0.2617,-0.2651,-0.2666,-0.2669,-0.2644,-0.2652,-0.2686,-0.2688,-0.2691,-0.266,-0.266,-0.2661,-0.266,-0.266,-0.266,0,-0.2441,-0.2459,-0.2471,-0.2495,-0.2529,-0.2562,-0.2607,-0.2631,-0.2638,-0.2652,-0.2678,-0.2686,-0.2692,-0.2706,-0.27,-0.2727,-0.2695,-0.2692,-0.2663,-0.27,-0.2665,-0.2664,-0.2665,-0.2664,-0.2663,-0.2662,0,0,-0.2437,-0.246,-0.2465,-0.2485,-0.2547,-0.2576,-0.2629,-0.2676,-0.2696,-0.272,-0.2736,-0.277,-0.2756,-0.2762,-0.276,-0.2765,-0.2767,-0.2735,-0.2733,-0.27,-0.2734,-0.2649,-0.2638,-0.2764,-0.2764,-0.2764,-0.27,0,-0.2441,-0.2463,-0.2483,-0.2537,-0.2566,-0.2618,-0.2664,-0.271,-0.2735,-0.2758,-0.2775,-0.2787,-0.2784,-0.2782,-0.2791,-0.2775,-0.2766,-0.2783,-0.2708,-0.2705,-0.2621,-0.2636,-0.2512,-0.2439,-0.2698,-0.2698,-0.2698,0,-0.2416,-0.2445,-0.2476,-0.2547,-0.2567,-0.2604,-0.2669,-0.2715,-0.2766,-0.2783,-0.2803,-0.2805,-0.2825,-0.2809,-0.2798,-0.2803,-0.2767,-0.2751,-0.2748,-0.2646,-0.2618,-0.2447,-0.2426,-0.2398,-0.2695,-0.2695,-0.2695,0,-0.2362,-0.2435,-0.2448,-0.2476,-0.2567,-0.2594,-0.264,-0.2705,-0.2735,-0.2783,-0.2793,-0.2821,-0.2817,-0.2803,-0.2776,-0.278,-0.2743,-0.2745,-0.2632,-0.2625,-0.2493,-0.2473,-0.2429,-0.272,-0.272,-0.272,-0.272,0,-0.2334,-0.2352,-0.2421,-0.2437,-0.2475,-0.2555,-0.2589,-0.2644,-0.2707,-0.2729,-0.2783,-0.2794,-0.2813,-0.2799,-0.2773,-0.2692,-0.2738,-0.2627,-0.2604,-0.2507,-0.2491,-0.2438,-0.247,-0.2717,-0.2718,-0.2718,-0.2719,0,-0.2247,-0.2289,-0.2322,-0.2416,-0.244,-0.2461,-0.2543,-0.2568,-0.2645,-0.2674,-0.2685,-0.2757,-0.2738,-0.2739,-0.271,-0.2666,-0.2562,-0.2571,-0.2443,-0.2406,-0.2262,-0.2303,-0.2241,-0.218,-0.2427,-0.2425,-0.2423,0,-0.2191,-0.2191,-0.2273,-0.2288,-0.2322,-0.2369,-0.2398,-0.2506,-0.2539,-0.2641,-0.2645,-0.2662,-0.2638,-0.2575,-0.251,-0.243,-0.2452,-0.2278,-0.2268,-0.2227,-0.2257,-0.2296,-0.2253,-0.2113,-0.2108,-0.2104,-0.2102,0,-0.2093,-0.2111,-0.2135,-0.2173,-0.2203,-0.2241,-0.2297,-0.2319,-0.2442,-0.2472,-0.2501,-0.2493,-0.2452,-0.2325,-0.2248,-0.2195,-0.2216,-0.2198,-0.2194,-0.2033,-0.2035,-0.1973,-0.2179,-0.2069,-0.2072,-0.2075,-0.2076,-0.2078,-0.1991,-0.1984,-0.2009,-0.2033,-0.2068,-0.2089,-0.2065,-0.2143,-0.2166,-0.2186,-0.2283,-0.2232,-0.2188,-0.205,-0.1998,-0.1864,-0.1958,-0.1808,-0.1866,-0.1914,-0.1839,-0.1961,-0.1808,-0.181,-0.1811,-0.1813,-0.1814,0,-0.1867,-0.186,-0.1871,-0.1888,-0.1867,-0.1939,-0.1971,-0.1926,-0.1894,-0.1956,-0.1937,-0.1905,-0.1778,-0.176,-0.1645,-0.1565,-0.1542,-0.1545,-0.1579,-0.1554,-0.167,-0.1637,-0.1394,-0.1394,-0.1394,-0.1394,-0.1394,-0.1394,-0.1796,-0.1742,-0.1756,-0.1676,-0.168,-0.1601,-0.1582,-0.1547,-0.1554,-0.1504,-0.1512,-0.1563,-0.1577,-0.1658,-0.153,-0.1449,-0.1438,-0.1384,-0.1442,-0.1538,-0.1568,-0.1596,-0.1572,-0.1318,-0.1318,-0.1241,-0.1241,-0.1241]},{"header":{"parameterUnit":"m.s-1","parameterCategory":2,"la1":30.2991,"la2":30.254,"lo1":-89.0895,"lo2":-89.0444,"dy":0.0017,"dx":0.0017,"nx":28,"ny":28,"refTime":"2024-08-27T21:00:00:Z","depth":"0","parameterNumber":3,"parameterNumberName":"V-component_of_CURRENTS"},"data":[0,0,0,0,0,0,0,0,0,0,0,0,0,0,0,0,0,0,0,0,0,0,0,0,0,0,0,0,0,0,0,0,0,0,0,0,0,0,0,0,0,0,0,0,0,0,0,0,0,0,0,0,0,0,0,0,0,0,-0.0143,-0.0142,0,-0.0061,-0.006,-0.0059,-0.0003,-0.0002,-0.0002,-0.0002,0.0124,0.0126,0.0129,0,0,0,0,0,0,0,0,0,0,0,0,0,-0.0216,-0.0215,-0.0143,-0.0142,-0.0141,-0.0061,-0.006,-0.0058,-0.0003,-0.0002,-0.0002,-0.0002,0.0123,0.0126,0.013,0,0,0,0,0,0,0,0,0,0,0,0,0,-0.0164,-0.0215,-0.0143,-0.0104,-0.01,-0.0061,-0.006,-0.0058,-0.0003,-0.0002,-0.0002,-0.0001,0.0121,0.0126,0.013,0.0148,0,0,0.0144,0.0146,0,0,0,0,0,0,0,0,-0.0167,-0.0161,-0.0111,-0.0107,-0.0102,-0.0042,-0.0039,0.0013,-0.0003,-0.0039,-0.0002,-0.0001,0.0071,0.008,0.0095,0.0153,0.0159,0.0144,0.0147,0.0149,0.015,0,0,0,0,0,0,0,-0.017,-0.0164,-0.011,-0.011,-0.0104,-0.0078,-0.0071,-0.0029,0.0014,-0.0036,-0.0032,-0.0024,0.0074,0.009,0.0098,0.0161,0.0144,0.0148,0.0151,0.0153,0.0241,0.024,0,0,0,0,0,0,-0.0184,-0.0168,-0.0112,-0.0107,-0.0134,-0.0078,-0.0069,-0.0061,0.0012,0.0023,-0.0024,-0.0021,0.0082,0.0093,0.0103,0.0122,0.0149,0.0153,0.0156,0.0241,0.0241,0.024,0,0,0,0,0,0,-0.0186,-0.018,-0.0116,-0.0136,-0.0126,-0.0077,-0.0069,-0.006,-0.0043,0.002,0.0033,-0.0017,0.0083,0.0096,0.0134,0.0128,0.0155,0.0159,0.0242,0.0241,0.0241,0.0164,0,0,0,0,0,0,-0.0188,-0.0181,-0.0184,-0.0137,-0.0125,-0.0101,-0.0069,-0.0059,-0.004,-0.0035,0.0031,0.0043,0.0084,0.0126,0.0138,0.0134,0.0163,0.0242,0.0241,0.0241,0.0167,0.0161,0.0156,0,0,0,0,0,-0.0191,-0.0197,-0.0184,-0.0178,-0.0129,-0.0101,-0.0093,-0.0056,-0.004,-0.0038,0.0005,0.0041,0.013,0.013,0.0143,0.0141,0.0242,0.0242,0.0241,0.017,0.0163,0.0156,0,0,0,0,0,0,-0.023,-0.0191,-0.0176,-0.0169,-0.0142,-0.0092,-0.0087,-0.0062,-0.0026,-0.0021,0.0039,0.0054,0.0083,0.0121,0.0119,0.0164,0.0191,0.0193,0.0133,0.0127,0.0121,0.0108,0.0167,0,0,0,0,0,-0.0241,-0.0236,-0.0194,-0.0191,-0.0179,-0.0135,-0.012,-0.0096,-0.0057,-0.0041,0.0004,0.0051,0.009,0.0115,0.0154,0.018,0.0222,0.0187,0.0181,0.0176,0.0175,0.0227,0.0226,0.0238,0.0238,0.0238,0,0,-0.0256,-0.0235,-0.0232,-0.02,-0.0174,-0.0168,-0.0125,-0.0107,-0.0101,-0.0032,-0.0012,0.0033,0.0092,0.0118,0.0135,0.0151,0.0194,0.0175,0.0171,0.0172,0.0226,0.0225,0.0224,0.0237,0.0237,0.0237,0,0,-0.0288,-0.0264,-0.0272,-0.0255,-0.0224,-0.0195,-0.0194,-0.0149,-0.0128,-0.0103,-0.0054,-0.0014,0.0044,0.0086,0.0115,0.0103,0.016,0.0113,0.0079,0.013,0.0129,0.013,0.0174,0.0179,0.0113,0.0113,0.0113,0,-0.0314,-0.0314,-0.0271,-0.0276,-0.0271,-0.0213,-0.0226,-0.0194,-0.0145,-0.0129,-0.0108,-0.0021,0.0029,0.0069,0.0065,0.0091,0.0126,0.0098,0.0122,0.0123,0.0125,0.0171,0.0177,0.0109,0.011,0.011,0.0111,0,-0.0347,-0.0353,-0.0357,-0.0345,-0.0331,-0.0333,-0.0287,-0.0269,-0.0235,-0.0199,-0.0156,-0.0086,-0.0034,-0.0012,0.0025,0.0058,0.0081,0.0105,0.0136,0.0119,0.0168,0.0176,0.0104,0.0105,0.0106,0.0107,0,0,-0.0403,-0.0387,-0.0391,-0.0405,-0.0372,-0.0368,-0.0354,-0.0325,-0.0315,-0.0258,-0.0239,-0.0166,-0.0121,-0.0086,-0.003,0.0019,0.0061,0.0061,0.0065,0.0099,0.0169,0.0221,0.0235,0.0088,0.0089,0.009,0.0197,0,-0.0451,-0.0481,-0.0454,-0.049,-0.0505,-0.0457,-0.0449,-0.0412,-0.0366,-0.0329,-0.0246,-0.0205,-0.015,-0.0125,-0.0069,0.0032,0.0079,0.003,0.0186,0.0191,0.0235,0.0245,0.0287,0.0389,0.0205,0.0206,0.0207,0,-0.0499,-0.0516,-0.0554,-0.0569,-0.0571,-0.0576,-0.0556,-0.0541,-0.0465,-0.0429,-0.0365,-0.0292,-0.0208,-0.0162,-0.0006,-0.0041,0.0052,0.0131,0.0138,0.022,0.0258,0.038,0.0411,0.058,0.022,0.0219,0.0218,0,-0.0564,-0.0592,-0.0627,-0.0632,-0.0628,-0.0636,-0.0628,-0.0572,-0.0562,-0.0487,-0.0463,-0.0353,-0.0294,-0.0165,0.0004,-0.0002,0.0182,0.0196,0.0329,0.0334,0.0419,0.0429,0.063,0.03,0.03,0.03,0.0299,0,-0.0629,-0.0663,-0.0662,-0.0685,-0.0734,-0.0702,-0.0726,-0.0697,-0.0647,-0.0635,-0.052,-0.0475,-0.0291,-0.0157,-0.0012,0.0191,0.0172,0.033,0.037,0.0393,0.0399,0.059,0.0647,0.0304,0.0303,0.0302,0.0301,0,-0.0694,-0.0689,-0.074,-0.0754,-0.0765,-0.0797,-0.0805,-0.0813,-0.0754,-0.0731,-0.0711,-0.0562,-0.0376,-0.0179,0.0045,0.0171,0.0468,0.043,0.0444,0.0484,0.0755,0.0804,0.1022,0.1128,0.0589,0.0591,0.0593,0,-0.0729,-0.0756,-0.0799,-0.0835,-0.0847,-0.0884,-0.0906,-0.0874,-0.0877,-0.0778,-0.0771,-0.0588,-0.0438,-0.0083,0.0183,0.0458,0.0574,0.0633,0.0633,0.0789,0.0873,0.0898,0.0973,0.0714,0.0717,0.0719,0.072,0,-0.0797,-0.0801,-0.0838,-0.0915,-0.0957,-0.1006,-0.1032,-0.1049,-0.0995,-0.0941,-0.0826,-0.0689,-0.0328,0.0023,0.0377,0.0534,0.0765,0.0684,0.0853,0.0997,0.1032,0.1146,0.0617,0.0739,0.0737,0.0736,0.0735,0.0734,-0.0838,-0.088,-0.0921,-0.0994,-0.1049,-0.1105,-0.1132,-0.1125,-0.1103,-0.0982,-0.0861,-0.0601,-0.011,0.0418,0.0609,0.1008,0.095,0.1111,0.1159,0.1172,0.1277,0.0784,0.0944,0.0944,0.0943,0.0943,0.0942,0,-0.0889,-0.0926,-0.1,-0.1079,-0.1146,-0.1156,-0.1197,-0.1179,-0.1127,-0.0959,-0.079,-0.023,0.0253,0.0701,0.1257,0.1473,0.1519,0.1562,0.1618,0.1675,0.1259,0.1268,0.1498,0.1498,0.1497,0.1497,0.1497,0.1497,-0.0915,-0.0983,-0.102,-0.1137,-0.1189,-0.1241,-0.1251,-0.1189,-0.1067,-0.0734,-0.0404,-0.0131,0.0493,0.1354,0.1859,0.1898,0.2095,0.2057,0.2164,0.1883,0.1845,0.1808,0.1834,0.2179,0.2179,0.2575,0.2579,0.2582]}],[{"header":{"parameterUnit":"m.s-1","parameterCategory":2,"la1":30.2991,"la2":30.254,"lo1":-89.0895,"lo2":-89.0444,"dy":0.0017,"dx":0.0017,"nx":28,"ny":28,"refTime":"2024-08-27T21:00:00:Z","depth":"2","parameterNumber":2,"parameterNumberName":"U-component_of_CURRENTS"},"data":[0,0,0,0,0,0,0,0,0,0,0,0,0,0,0,0,0,0,0,0,0,0,0,0,0,0,0,0,0,0,0,0,0,0,0,0,0,0,0,0,0,0,0,0,0,0,0,0,0,0,0,0,0,0,0,0,0,0,-0.2194,-0.2194,0,-0.2225,-0.2226,-0.2226,-0.2206,-0.2205,-0.2204,-0.2204,-0.2209,-0.221,-0.2211,0,0,0,0,0,0,0,0,0,0,0,0,0,-0.2113,-0.2114,-0.2194,-0.2194,-0.2195,-0.2225,-0.2226,-0.2226,-0.2206,-0.2205,-0.2204,-0.2203,-0.2209,-0.221,-0.2211,0,0,0,0,0,0,0,0,0,0,0,0,0,-0.2144,-0.2114,-0.2194,-0.219,-0.219,-0.2225,-0.2226,-0.2226,-0.2206,-0.2205,-0.2204,-0.2203,-0.2209,-0.221,-0.2211,-0.2241,0,0,-0.2215,-0.2215,0,0,0,0,0,0,0,0,-0.2143,-0.2147,-0.219,-0.219,-0.2191,-0.2212,-0.2199,-0.223,-0.2207,-0.2198,-0.2204,-0.2202,-0.221,-0.2211,-0.2217,-0.2241,-0.2241,-0.2215,-0.2216,-0.2216,-0.2217,0,0,0,0,0,0,0,-0.214,-0.2146,-0.2204,-0.2191,-0.2191,-0.2186,-0.2189,-0.2205,-0.2208,-0.2199,-0.2198,-0.2205,-0.221,-0.2216,-0.2217,-0.2242,-0.2215,-0.2216,-0.2217,-0.2217,-0.2292,-0.2294,0,0,0,0,0,0,-0.2143,-0.2144,-0.2203,-0.2205,-0.2166,-0.2189,-0.2192,-0.2205,-0.2208,-0.2208,-0.2206,-0.2204,-0.2214,-0.2215,-0.2217,-0.226,-0.2216,-0.2217,-0.2218,-0.2291,-0.2293,-0.2294,0,0,0,0,0,0,-0.2141,-0.2148,-0.2202,-0.2176,-0.2183,-0.2192,-0.2206,-0.2206,-0.2211,-0.2214,-0.2213,-0.221,-0.2213,-0.2215,-0.2237,-0.226,-0.2218,-0.2219,-0.229,-0.2292,-0.2293,-0.2342,0,0,0,0,0,0,-0.2138,-0.2147,-0.2155,-0.2177,-0.2185,-0.2228,-0.2207,-0.2208,-0.2218,-0.2216,-0.2218,-0.2217,-0.2213,-0.2235,-0.2238,-0.2261,-0.222,-0.2288,-0.2291,-0.2293,-0.2339,-0.2346,-0.2351,0,0,0,0,0,-0.2136,-0.2153,-0.2155,-0.2162,-0.2196,-0.2229,-0.2233,-0.2233,-0.2219,-0.2231,-0.2231,-0.2217,-0.2251,-0.2237,-0.224,-0.2264,-0.2287,-0.229,-0.2293,-0.2336,-0.2344,-0.2351,0,0,0,0,0,0,-0.2119,-0.2154,-0.2156,-0.2182,-0.2206,-0.2227,-0.2236,-0.2238,-0.2248,-0.2242,-0.2236,-0.2237,-0.2263,-0.226,-0.2244,-0.2293,-0.2266,-0.227,-0.2299,-0.2306,-0.2312,-0.2305,-0.2221,0,0,0,0,0,-0.2122,-0.2142,-0.2174,-0.2193,-0.2207,-0.2222,-0.2233,-0.2239,-0.2253,-0.2255,-0.2258,-0.2263,-0.228,-0.2288,-0.2299,-0.233,-0.231,-0.2347,-0.2353,-0.2358,-0.2355,-0.2356,-0.2361,-0.2303,-0.2303,-0.2303,0,0,-0.2117,-0.2141,-0.2149,-0.2191,-0.2205,-0.2236,-0.2225,-0.225,-0.2275,-0.2256,-0.2282,-0.2285,-0.2292,-0.2324,-0.2336,-0.2323,-0.2363,-0.2361,-0.2366,-0.236,-0.2359,-0.2364,-0.2369,-0.2305,-0.2305,-0.2305,0,0,-0.2123,-0.2144,-0.2163,-0.2192,-0.2227,-0.2245,-0.2255,-0.2283,-0.2293,-0.2326,-0.2317,-0.2335,-0.2357,-0.237,-0.2379,-0.2427,-0.2393,-0.2429,-0.2457,-0.2459,-0.2463,-0.2467,-0.244,-0.2441,-0.2434,-0.2434,-0.2434,0,-0.211,-0.2148,-0.2173,-0.2206,-0.223,-0.2251,-0.2281,-0.2306,-0.2336,-0.2349,-0.2338,-0.2375,-0.2382,-0.2422,-0.2437,-0.2441,-0.2421,-0.2429,-0.2466,-0.2469,-0.2472,-0.2443,-0.2444,-0.2437,-0.2437,-0.2437,-0.2436,0,-0.2137,-0.2169,-0.2185,-0.2234,-0.2265,-0.2296,-0.2339,-0.2367,-0.2379,-0.2396,-0.2432,-0.2444,-0.2459,-0.2473,-0.247,-0.2502,-0.2473,-0.2471,-0.2444,-0.248,-0.2448,-0.2448,-0.2441,-0.244,-0.2439,-0.2439,0,0,-0.209,-0.2183,-0.2186,-0.2216,-0.2283,-0.231,-0.2365,-0.2413,-0.2438,-0.2468,-0.2492,-0.2531,-0.2522,-0.2531,-0.2533,-0.254,-0.2545,-0.2514,-0.2513,-0.2481,-0.2522,-0.2432,-0.2422,-0.2545,-0.2546,-0.2546,-0.2488,0,-0.2095,-0.216,-0.2208,-0.2265,-0.23,-0.2351,-0.24,-0.2448,-0.2479,-0.251,-0.2532,-0.2553,-0.255,-0.2553,-0.2565,-0.2552,-0.2547,-0.2559,-0.2496,-0.2494,-0.2405,-0.242,-0.2239,-0.2166,-0.2487,-0.2487,-0.2487,0,-0.2092,-0.2143,-0.2201,-0.2286,-0.2305,-0.2342,-0.2413,-0.2459,-0.2518,-0.254,-0.2568,-0.2575,-0.26,-0.2585,-0.2581,-0.2585,-0.2553,-0.2539,-0.2536,-0.2433,-0.2403,-0.2184,-0.2152,-0.2485,-0.2485,-0.2485,-0.2485,0,-0.2039,-0.2129,-0.2174,-0.2205,-0.2308,-0.2337,-0.2384,-0.2455,-0.2489,-0.2546,-0.2561,-0.2596,-0.2598,-0.2589,-0.2564,-0.2568,-0.2539,-0.254,-0.2427,-0.2419,-0.2242,-0.2218,-0.2522,-0.2522,-0.2522,-0.2522,-0.2523,0,-0.2021,-0.2052,-0.2152,-0.2177,-0.2222,-0.2305,-0.2345,-0.2404,-0.2471,-0.2498,-0.2557,-0.2572,-0.2597,-0.2587,-0.2564,-0.2486,-0.2536,-0.2422,-0.24,-0.2253,-0.2231,-0.2494,-0.2491,-0.252,-0.2521,-0.2521,-0.2521,0,-0.195,-0.2021,-0.207,-0.2172,-0.2196,-0.2222,-0.2306,-0.2336,-0.2416,-0.2451,-0.2466,-0.254,-0.2525,-0.2531,-0.2507,-0.2464,-0.2416,-0.2372,-0.2184,-0.214,-0.2291,-0.2293,-0.2235,-0.2231,-0.2228,-0.2225,-0.2223,0,-0.192,-0.194,-0.2033,-0.205,-0.209,-0.2141,-0.2172,-0.228,-0.2314,-0.242,-0.2425,-0.2448,-0.2425,-0.2366,-0.2297,-0.2218,-0.2317,-0.2017,-0.1997,-0.2278,-0.2263,-0.2269,-0.2274,-0.1777,-0.1771,-0.1767,-0.1763,0,-0.1845,-0.1874,-0.1909,-0.1953,-0.1985,-0.2026,-0.2082,-0.2104,-0.2226,-0.2256,-0.2284,-0.2275,-0.2232,-0.2071,-0.1994,-0.1938,-0.202,-0.1918,-0.2257,-0.1885,-0.1844,-0.1831,-0.1851,-0.1722,-0.1726,-0.1729,-0.1731,-0.1733,-0.1757,-0.1759,-0.1802,-0.1828,-0.1866,-0.1887,-0.1867,-0.1937,-0.1959,-0.1973,-0.2062,-0.1982,-0.1982,-0.175,-0.1659,-0.159,-0.1733,-0.1663,-0.1678,-0.1698,-0.1663,-0.162,-0.1447,-0.1449,-0.1451,-0.1453,-0.1455,0,-0.1642,-0.1657,-0.1675,-0.1699,-0.1683,-0.1753,-0.1782,-0.1736,-0.1699,-0.1735,-0.1707,-0.153,-0.1415,-0.1423,-0.1237,-0.1204,-0.1207,-0.1166,-0.1171,-0.1212,-0.1248,-0.1192,-0.0849,-0.0848,-0.0846,-0.0845,0,0,-0.1577,-0.1552,-0.1568,-0.1503,-0.1512,-0.1443,-0.1424,-0.138,-0.1367,-0.1286,-0.1238,-0.1317,-0.1364,-0.1102,-0.1045,-0.0911,-0.1054,-0.0865,-0.1349,-0.1393,-0.1427,-0.1529,-0.1486,0,0,0,0,0]},{"header":{"parameterUnit":"m.s-1","parameterCategory":2,"la1":30.2991,"la2":30.254,"lo1":-89.0895,"lo2":-89.0444,"dy":0.0017,"dx":0.0017,"nx":28,"ny":28,"refTime":"2024-08-27T21:00:00:Z","depth":"2","parameterNumber":3,"parameterNumberName":"V-component_of_CURRENTS"},"data":[0,0,0,0,0,0,0,0,0,0,0,0,0,0,0,0,0,0,0,0,0,0,0,0,0,0,0,0,0,0,0,0,0,0,0,0,0,0,0,0,0,0,0,0,0,0,0,0,0,0,0,0,0,0,0,0,0,0,-0.0152,-0.0151,0,-0.0079,-0.0078,-0.0078,-0.0025,-0.0025,-0.0024,-0.0024,0.0093,0.0096,0.0099,0,0,0,0,0,0,0,0,0,0,0,0,0,-0.0214,-0.0213,-0.0152,-0.0151,-0.015,-0.008,-0.0078,-0.0077,-0.0025,-0.0025,-0.0024,-0.0024,0.0092,0.0096,0.0099,0,0,0,0,0,0,0,0,0,0,0,0,0,-0.0168,-0.0213,-0.0152,-0.0116,-0.0112,-0.008,-0.0078,-0.0077,-0.0025,-0.0025,-0.0024,-0.0023,0.0091,0.0095,0.0099,0.0114,0,0,0.0112,0.0114,0,0,0,0,0,0,0,0,-0.0171,-0.0166,-0.0122,-0.0119,-0.0114,-0.0061,-0.0057,-0.0011,-0.0025,-0.0058,-0.0024,-0.0023,0.0045,0.0053,0.0066,0.0119,0.0124,0.0113,0.0115,0.0117,0.0118,0,0,0,0,0,0,0,-0.0174,-0.0169,-0.0123,-0.0122,-0.0117,-0.0093,-0.0086,-0.0048,-0.0009,-0.0055,-0.0051,-0.0044,0.0048,0.0061,0.0069,0.0126,0.0112,0.0116,0.0119,0.012,0.0201,0.02,0,0,0,0,0,0,-0.0187,-0.0172,-0.0125,-0.0121,-0.0143,-0.0093,-0.0085,-0.0078,-0.001,0.0,-0.0045,-0.0042,0.0054,0.0064,0.0073,0.0092,0.0117,0.0121,0.0123,0.0201,0.0201,0.02,0,0,0,0,0,0,-0.0189,-0.0183,-0.0128,-0.0145,-0.0136,-0.0092,-0.0085,-0.0077,-0.0062,-0.0003,0.0008,-0.0038,0.0055,0.0067,0.0102,0.0098,0.0123,0.0126,0.0201,0.0201,0.02,0.0132,0,0,0,0,0,0,-0.0191,-0.0185,-0.0187,-0.0146,-0.0136,-0.0116,-0.0086,-0.0076,-0.0059,-0.0055,0.0006,0.0018,0.0056,0.0095,0.0106,0.0104,0.013,0.0202,0.0201,0.02,0.0135,0.0129,0.0125,0,0,0,0,0,-0.0193,-0.02,-0.0188,-0.0182,-0.014,-0.0117,-0.011,-0.0076,-0.006,-0.0059,-0.0018,0.0016,0.0098,0.0098,0.0111,0.011,0.0202,0.0201,0.0201,0.0137,0.013,0.0125,0,0,0,0,0,0,-0.0229,-0.0194,-0.018,-0.0176,-0.0153,-0.0108,-0.0105,-0.0081,-0.0049,-0.0043,0.0013,0.0027,0.0054,0.009,0.0088,0.013,0.0155,0.0157,0.0103,0.0097,0.0092,0.0079,0.0133,0,0,0,0,0,-0.0239,-0.0236,-0.0199,-0.0198,-0.0187,-0.0148,-0.0135,-0.0112,-0.0077,-0.0062,-0.002,0.0024,0.006,0.0084,0.0119,0.0145,0.0184,0.0152,0.0147,0.0142,0.014,0.0196,0.0196,0.0197,0.0198,0.0198,0,0,-0.0253,-0.0235,-0.0233,-0.0206,-0.0183,-0.0178,-0.0138,-0.0124,-0.0118,-0.0054,-0.0035,0.0006,0.0061,0.0087,0.0103,0.0118,0.0161,0.0141,0.0137,0.0137,0.0195,0.0195,0.0195,0.0197,0.0197,0.0197,0,0,-0.0284,-0.0263,-0.0272,-0.0257,-0.023,-0.0204,-0.0203,-0.0163,-0.0143,-0.0121,-0.0075,-0.0036,0.0016,0.0058,0.0085,0.0074,0.0128,0.0083,0.0053,0.0107,0.0108,0.0109,0.0149,0.0154,0.0085,0.0085,0.0085,0,-0.0305,-0.0309,-0.0272,-0.0277,-0.0272,-0.022,-0.0232,-0.0203,-0.0159,-0.0143,-0.0126,-0.0044,0.0003,0.0044,0.004,0.0064,0.0097,0.0071,0.0101,0.0103,0.0105,0.0146,0.0152,0.0081,0.0082,0.0082,0.0082,0,-0.0339,-0.0345,-0.035,-0.0339,-0.0328,-0.033,-0.0288,-0.0272,-0.0242,-0.0208,-0.0166,-0.0102,-0.0051,-0.0031,0.0003,0.0039,0.0058,0.0084,0.0114,0.01,0.0145,0.0153,0.0077,0.0078,0.0079,0.008,0,0,-0.0385,-0.0377,-0.0381,-0.0394,-0.0364,-0.0362,-0.0348,-0.0321,-0.0311,-0.0259,-0.0238,-0.0171,-0.0129,-0.0095,-0.0043,0.0008,0.0051,0.0045,0.005,0.0081,0.0161,0.0196,0.0209,0.0082,0.0083,0.0084,0.0182,0,-0.0428,-0.046,-0.0438,-0.0471,-0.0484,-0.044,-0.0433,-0.0399,-0.0356,-0.032,-0.0241,-0.0202,-0.0154,-0.013,-0.0073,0.0022,0.007,0.0021,0.0173,0.0178,0.0208,0.0219,0.019,0.0277,0.019,0.0191,0.0192,0,-0.0472,-0.0489,-0.0528,-0.0541,-0.0542,-0.0548,-0.0528,-0.0515,-0.0443,-0.0409,-0.0346,-0.0279,-0.0198,-0.0156,-0.0005,-0.004,0.0049,0.0124,0.013,0.0194,0.0229,0.028,0.0295,0.0206,0.0205,0.0204,0.0203,0,-0.0529,-0.0556,-0.0592,-0.0597,-0.0594,-0.0601,-0.0594,-0.0541,-0.0532,-0.0459,-0.0435,-0.0329,-0.0272,-0.0149,0.0007,0.0002,0.0178,0.0194,0.0308,0.0311,0.0333,0.0336,0.0297,0.0297,0.0297,0.0297,0.0297,0,-0.0587,-0.0619,-0.0624,-0.0646,-0.069,-0.0661,-0.0683,-0.0656,-0.0608,-0.0593,-0.0486,-0.0441,-0.0266,-0.0141,-0.0006,0.0179,0.0171,0.0306,0.0344,0.0307,0.0307,0.0284,0.0281,0.03,0.03,0.0299,0.0298,0,-0.0646,-0.0646,-0.0693,-0.0709,-0.0719,-0.0749,-0.0756,-0.0762,-0.0706,-0.0681,-0.066,-0.052,-0.0348,-0.0164,0.0049,0.0162,0.0335,0.04,0.0339,0.0368,0.043,0.0422,0.0532,0.0534,0.0536,0.0537,0.0539,0,-0.0679,-0.0707,-0.0749,-0.0782,-0.0795,-0.083,-0.085,-0.0819,-0.0819,-0.0724,-0.0713,-0.0544,-0.0406,-0.0081,0.0153,0.0401,0.0396,0.0501,0.0492,0.0431,0.0457,0.0446,0.0436,0.0489,0.049,0.049,0.0491,0,-0.0742,-0.075,-0.0785,-0.0857,-0.0896,-0.0941,-0.0964,-0.0977,-0.0923,-0.0869,-0.0761,-0.0636,-0.0318,-0.0035,0.0279,0.0411,0.046,0.0523,0.0493,0.0433,0.0399,0.0421,0.0411,0.0497,0.0496,0.0496,0.0495,0.0495,-0.0781,-0.0822,-0.0864,-0.0931,-0.0982,-0.1032,-0.1056,-0.1044,-0.102,-0.0904,-0.0795,-0.0565,-0.0308,0.0163,0.0374,0.0561,0.0555,0.0595,0.059,0.0585,0.0561,0.0533,0.065,0.065,0.0651,0.0651,0.0651,0,-0.0826,-0.0868,-0.0937,-0.101,-0.1072,-0.1081,-0.1114,-0.1095,-0.1042,-0.0888,-0.0734,-0.0426,-0.0104,0.0163,0.0478,0.0657,0.0627,0.0668,0.0598,0.0591,0.0586,0.0559,0.0649,0.065,0.0651,0.0651,0,0,-0.085,-0.0922,-0.0957,-0.1065,-0.1114,-0.1162,-0.117,-0.1106,-0.0994,-0.0817,-0.063,-0.0386,-0.0072,0.0153,0.0371,0.0528,0.0508,0.053,0.0511,0.0396,0.0388,0.0524,0.0473,0,0,0,0,0]}],[{"header":{"parameterUnit":"m.s-1","parameterCategory":2,"la1":30.2991,"la2":30.254,"lo1":-89.0895,"lo2":-89.0444,"dy":0.0017,"dx":0.0017,"nx":28,"ny":28,"refTime":"2024-08-27T21:00:00:Z","depth":"4","parameterNumber":2,"parameterNumberName":"U-component_of_CURRENTS"},"data":[0,0,0,0,0,0,0,0,0,0,0,0,0,0,0,0,0,0,0,0,0,0,0,0,0,0,0,0,0,0,0,0,0,0,0,0,0,0,0,0,0,0,0,0,0,0,0,0,0,0,0,0,0,0,0,0,0,0,-0.1576,-0.1576,0,-0.1632,-0.1633,-0.1633,-0.1668,-0.1668,-0.1669,-0.1669,-0.1752,-0.1754,-0.1756,0,0,0,0,0,0,0,0,0,0,0,0,0,-0.1482,-0.1484,-0.1576,-0.1577,-0.1577,-0.1632,-0.1633,-0.1633,-0.1668,-0.1668,-0.1669,-0.1669,-0.1751,-0.1754,-0.1756,0,0,0,0,0,0,0,0,0,0,0,0,0,-0.1528,-0.1484,-0.1576,-0.1602,-0.1605,-0.1632,-0.1633,-0.1634,-0.1668,-0.1668,-0.1669,-0.1669,-0.1751,-0.1754,-0.1756,-0.1766,0,0,-0.1765,-0.1767,0,0,0,0,0,0,0,0,-0.1526,-0.1532,-0.1597,-0.16,-0.1604,-0.1644,-0.163,-0.168,-0.1668,-0.1643,-0.1669,-0.1669,-0.1719,-0.1725,-0.1732,-0.177,-0.1774,-0.1766,-0.1768,-0.1769,-0.177,0,0,0,0,0,0,0,-0.1522,-0.1529,-0.1597,-0.1598,-0.1602,-0.1606,-0.1613,-0.164,-0.1678,-0.1645,-0.1648,-0.1656,-0.1721,-0.1729,-0.1735,-0.1775,-0.1766,-0.1768,-0.177,-0.1771,-0.1898,-0.1899,0,0,0,0,0,0,-0.1518,-0.1526,-0.1595,-0.1599,-0.1566,-0.1607,-0.1615,-0.163,-0.1677,-0.1684,-0.1655,-0.1657,-0.1724,-0.1731,-0.1738,-0.1824,-0.1769,-0.1772,-0.1773,-0.1896,-0.1898,-0.19,0,0,0,0,0,0,-0.1516,-0.1524,-0.1593,-0.1564,-0.1573,-0.1609,-0.1625,-0.1631,-0.1666,-0.1685,-0.1693,-0.1687,-0.1725,-0.1734,-0.1788,-0.1825,-0.1773,-0.1776,-0.1894,-0.1897,-0.1899,-0.1951,0,0,0,0,0,0,-0.1513,-0.1523,-0.1545,-0.1564,-0.1575,-0.1629,-0.1625,-0.1632,-0.1669,-0.1672,-0.1714,-0.1721,-0.1726,-0.1784,-0.1791,-0.1828,-0.1778,-0.1892,-0.1896,-0.1898,-0.1947,-0.1955,-0.1961,0,0,0,0,0,-0.151,-0.1535,-0.1546,-0.1555,-0.16,-0.163,-0.1636,-0.1661,-0.167,-0.1693,-0.1722,-0.1721,-0.1808,-0.1787,-0.1796,-0.1834,-0.1891,-0.1895,-0.1898,-0.1944,-0.1953,-0.1961,0,0,0,0,0,0,-0.1495,-0.1541,-0.1554,-0.159,-0.1617,-0.1637,-0.1662,-0.1677,-0.1717,-0.1729,-0.1743,-0.1752,-0.1811,-0.1817,-0.1794,-0.1879,-0.1849,-0.1854,-0.1881,-0.189,-0.1897,-0.1888,-0.178,0,0,0,0,0,-0.1504,-0.1546,-0.1574,-0.1605,-0.162,-0.1646,-0.1666,-0.1685,-0.1715,-0.1734,-0.1763,-0.1796,-0.1828,-0.1855,-0.188,-0.1931,-0.1913,-0.1961,-0.1968,-0.1974,-0.1973,-0.1982,-0.199,-0.1912,-0.1912,-0.1912,0,0,-0.1506,-0.1538,-0.1561,-0.1608,-0.163,-0.1661,-0.166,-0.17,-0.1737,-0.1737,-0.1803,-0.1823,-0.1846,-0.19,-0.1928,-0.1914,-0.1986,-0.1978,-0.1983,-0.1979,-0.1987,-0.1994,-0.2001,-0.1914,-0.1914,-0.1913,0,0,-0.1521,-0.156,-0.1595,-0.1625,-0.1671,-0.169,-0.1708,-0.1746,-0.1777,-0.1835,-0.1844,-0.1887,-0.1942,-0.1963,-0.198,-0.2043,-0.202,-0.2057,-0.2093,-0.2103,-0.2109,-0.2114,-0.2091,-0.2093,-0.2065,-0.2065,-0.2065,0,-0.1513,-0.1569,-0.1608,-0.1644,-0.1673,-0.1706,-0.1739,-0.1777,-0.1832,-0.186,-0.1867,-0.1947,-0.197,-0.2027,-0.205,-0.206,-0.2047,-0.2058,-0.211,-0.2115,-0.2119,-0.2094,-0.2097,-0.2068,-0.2067,-0.2067,-0.2067,0,-0.1552,-0.16,-0.1622,-0.1685,-0.1721,-0.1759,-0.1807,-0.1856,-0.1896,-0.1925,-0.1997,-0.2027,-0.2069,-0.209,-0.2092,-0.2143,-0.2116,-0.2113,-0.2084,-0.213,-0.2101,-0.2102,-0.2072,-0.2071,-0.207,-0.2069,0,0,-0.1503,-0.1625,-0.1633,-0.1673,-0.1749,-0.1778,-0.185,-0.1912,-0.1957,-0.2017,-0.2066,-0.2131,-0.214,-0.2159,-0.2172,-0.2188,-0.2208,-0.2169,-0.2168,-0.2137,-0.2205,-0.205,-0.2036,-0.2214,-0.2215,-0.2216,-0.2168,0,-0.1512,-0.1597,-0.1657,-0.173,-0.1769,-0.1833,-0.1893,-0.1959,-0.2014,-0.2072,-0.2114,-0.2164,-0.217,-0.2193,-0.2214,-0.2211,-0.2216,-0.2219,-0.2173,-0.2171,-0.2021,-0.2034,-0.2219,-0.2169,-0.2169,-0.2169,-0.217,0,-0.1517,-0.1579,-0.166,-0.1762,-0.1784,-0.1836,-0.1933,-0.1991,-0.2077,-0.2119,-0.2175,-0.22,-0.2246,-0.2237,-0.2254,-0.2256,-0.2235,-0.2225,-0.2223,-0.2058,-0.2018,-0.2118,-0.2171,-0.2171,-0.2171,-0.2171,-0.2171,0,-0.1465,-0.1572,-0.1645,-0.168,-0.1799,-0.185,-0.1911,-0.2005,-0.2053,-0.2144,-0.2175,-0.2235,-0.2258,-0.2262,-0.2249,-0.2255,-0.2241,-0.2243,-0.2079,-0.2067,-0.2199,-0.2194,-0.2241,-0.2241,-0.2241,-0.2241,-0.2241,0,-0.1442,-0.1496,-0.1632,-0.1669,-0.174,-0.1831,-0.1905,-0.1978,-0.2066,-0.2105,-0.2188,-0.2209,-0.2266,-0.2267,-0.2251,-0.2154,-0.2241,-0.2072,-0.2044,-0.2221,-0.2219,-0.2199,-0.2194,-0.2239,-0.224,-0.224,-0.224,0,-0.1372,-0.1469,-0.1547,-0.1681,-0.172,-0.1769,-0.1886,-0.1929,-0.2031,-0.208,-0.2106,-0.219,-0.2178,-0.2202,-0.2195,-0.2129,-0.2073,-0.2018,-0.2185,-0.2169,-0.1891,-0.189,-0.182,-0.1814,-0.1809,-0.1805,-0.1801,0,-0.1346,-0.1388,-0.153,-0.1567,-0.1631,-0.1716,-0.1765,-0.189,-0.1927,-0.2044,-0.2044,-0.2082,-0.2113,-0.1964,-0.2018,-0.1954,-0.1936,-0.1893,-0.1907,-0.1867,-0.1848,-0.1856,-0.1862,-0.1793,-0.1792,-0.1791,-0.179,0,-0.1276,-0.1345,-0.1404,-0.1485,-0.1548,-0.1608,-0.1688,-0.1699,-0.1826,-0.1936,-0.1911,-0.1893,-0.1869,-0.1849,-0.1805,-0.1772,-0.1917,-0.184,-0.1851,-0.1864,-0.1835,-0.1822,-0.1834,-0.1772,-0.1775,-0.1776,-0.1777,0,-0.121,-0.1233,-0.132,-0.1371,-0.1447,-0.1471,-0.1533,-0.1563,-0.1611,-0.1743,-0.1726,-0.177,-0.1843,-0.1752,-0.1722,-0.1664,-0.164,-0.159,-0.1613,-0.1633,-0.1594,-0.1531,-0.1338,0,0,0,0,0,-0.1132,-0.1151,-0.1196,-0.1249,-0.1319,-0.1359,-0.1464,-0.153,-0.1651,-0.1579,-0.1646,-0.1613,-0.1559,-0.1589,-0.1485,-0.1641,-0.1653,-0.1515,-0.1611,-0.1676,-0.1696,-0.1669,0,0,0,0,0,0,-0.1081,-0.1128,-0.1151,-0.1129,-0.1137,-0.1198,-0.1257,-0.1345,-0.1314,-0.1438,-0.1408,-0.15,-0.1466,-0.1575,-0.1443,-0.145,-0.1474,-0.155,-0.1545,-0.1665,-0.1683,-0.1699,-0.1679,0,0,0,0,0]},{"header":{"parameterUnit":"m.s-1","parameterCategory":2,"la1":30.2991,"la2":30.254,"lo1":-89.0895,"lo2":-89.0444,"dy":0.0017,"dx":0.0017,"nx":28,"ny":28,"refTime":"2024-08-27T21:00:00:Z","depth":"4","parameterNumber":3,"parameterNumberName":"V-component_of_CURRENTS"},"data":[0,0,0,0,0,0,0,0,0,0,0,0,0,0,0,0,0,0,0,0,0,0,0,0,0,0,0,0,0,0,0,0,0,0,0,0,0,0,0,0,0,0,0,0,0,0,0,0,0,0,0,0,0,0,0,0,0,0,-0.0129,-0.0129,0,-0.0081,-0.008,-0.008,-0.0041,-0.004,-0.004,-0.004,0.0054,0.0056,0.0059,0,0,0,0,0,0,0,0,0,0,0,0,0,-0.0165,-0.0165,-0.0129,-0.0129,-0.0128,-0.0081,-0.008,-0.008,-0.0041,-0.004,-0.004,-0.0039,0.0054,0.0056,0.0059,0,0,0,0,0,0,0,0,0,0,0,0,0,-0.0136,-0.0165,-0.0129,-0.0104,-0.0101,-0.0081,-0.008,-0.0079,-0.0041,-0.004,-0.004,-0.0039,0.0053,0.0056,0.0059,0.007,0,0,0.0069,0.0071,0,0,0,0,0,0,0,0,-0.0138,-0.0134,-0.0108,-0.0105,-0.0102,-0.0067,-0.0059,-0.0028,-0.0041,-0.0063,-0.004,-0.0039,0.0017,0.0023,0.0032,0.0074,0.0078,0.007,0.0072,0.0073,0.0074,0,0,0,0,0,0,0,-0.014,-0.0136,-0.0109,-0.0108,-0.0104,-0.0087,-0.0082,-0.0053,-0.0025,-0.0061,-0.0058,-0.0054,0.0019,0.0028,0.0034,0.0079,0.0069,0.0072,0.0074,0.0076,0.014,0.014,0,0,0,0,0,0,-0.0149,-0.0138,-0.0111,-0.0108,-0.012,-0.0087,-0.0082,-0.0078,-0.0026,-0.0018,-0.0055,-0.0052,0.0023,0.0031,0.0038,0.0054,0.0073,0.0076,0.0078,0.014,0.014,0.014,0,0,0,0,0,0,-0.015,-0.0147,-0.0113,-0.0123,-0.0117,-0.0087,-0.0083,-0.0078,-0.0068,-0.0022,-0.0013,-0.0051,0.0023,0.0033,0.006,0.0058,0.0077,0.008,0.0141,0.014,0.014,0.0085,0,0,0,0,0,0,-0.0151,-0.0148,-0.0152,-0.0123,-0.0117,-0.0108,-0.0084,-0.0077,-0.0066,-0.0063,-0.0016,-0.0006,0.0025,0.0054,0.0063,0.0063,0.0083,0.0141,0.0141,0.014,0.0088,0.0083,0.0079,0,0,0,0,0,-0.0153,-0.016,-0.0153,-0.0149,-0.0123,-0.0108,-0.0104,-0.0079,-0.0067,-0.0068,-0.0036,-0.0008,0.0058,0.0057,0.0067,0.0067,0.0141,0.0141,0.014,0.0089,0.0084,0.008,0,0,0,0,0,0,-0.0177,-0.0156,-0.0147,-0.0148,-0.0133,-0.0102,-0.0101,-0.0084,-0.006,-0.0056,-0.0011,0.0,0.0021,0.0051,0.0049,0.0084,0.0104,0.0105,0.0062,0.0058,0.0054,0.0042,0.0086,0,0,0,0,0,-0.0186,-0.0188,-0.0163,-0.0166,-0.0159,-0.0132,-0.0124,-0.0108,-0.0082,-0.0071,-0.0038,-0.0003,0.0026,0.0046,0.0074,0.0095,0.0129,0.0102,0.0098,0.0094,0.0091,0.0146,0.0146,0.0138,0.0138,0.0138,0,0,-0.0198,-0.0187,-0.0188,-0.0172,-0.0157,-0.0155,-0.0125,-0.0117,-0.0115,-0.0064,-0.0051,-0.0018,0.0027,0.0048,0.0061,0.0074,0.0112,0.0093,0.009,0.0089,0.0145,0.0146,0.0147,0.0138,0.0138,0.0138,0,0,-0.0223,-0.0211,-0.022,-0.0211,-0.0195,-0.0177,-0.0177,-0.0149,-0.0136,-0.0121,-0.0083,-0.0051,-0.0011,0.0024,0.0047,0.0039,0.0086,0.0047,0.0023,0.0076,0.0077,0.0078,0.0113,0.0118,0.0049,0.0049,0.0049,0,-0.0238,-0.0245,-0.0221,-0.0227,-0.0226,-0.019,-0.02,-0.0181,-0.0149,-0.0137,-0.0125,-0.0059,-0.0021,0.0015,0.0011,0.0031,0.0061,0.0037,0.007,0.0073,0.0075,0.011,0.0117,0.0046,0.0047,0.0047,0.0047,0,-0.0267,-0.0275,-0.028,-0.0276,-0.027,-0.0275,-0.0246,-0.0236,-0.0215,-0.019,-0.0157,-0.0105,-0.0064,-0.0046,-0.0019,0.0016,0.0031,0.0055,0.0081,0.0073,0.011,0.0118,0.0042,0.0043,0.0044,0.0045,0,0,-0.0296,-0.0301,-0.0305,-0.0317,-0.0299,-0.03,-0.0293,-0.0275,-0.0269,-0.023,-0.0213,-0.0159,-0.0125,-0.0097,-0.0053,-0.0005,0.0037,0.0027,0.0031,0.0057,0.014,0.0132,0.014,0.0068,0.007,0.0071,0.0155,0,-0.0328,-0.0359,-0.0348,-0.0378,-0.039,-0.0361,-0.036,-0.0336,-0.0305,-0.0279,-0.0213,-0.0182,-0.0145,-0.0125,-0.0072,0.0011,0.0056,0.0011,0.0147,0.0151,0.0143,0.0149,0.0075,0.0161,0.0163,0.0164,0.0165,0,-0.036,-0.0378,-0.0415,-0.0432,-0.0435,-0.0445,-0.0436,-0.043,-0.0375,-0.0349,-0.0298,-0.0244,-0.0173,-0.0139,-0.0005,-0.0036,0.0042,0.0108,0.0114,0.0131,0.0158,0.0176,0.0179,0.0178,0.0177,0.0176,0.0175,0,-0.0396,-0.0425,-0.0461,-0.0468,-0.0475,-0.0488,-0.0489,-0.0453,-0.0448,-0.0391,-0.0372,-0.0281,-0.0233,-0.0123,0.0008,0.0004,0.016,0.0177,0.0243,0.0243,0.0249,0.0247,0.0273,0.0273,0.0272,0.0272,0.0272,0,-0.0433,-0.0464,-0.0486,-0.0507,-0.0551,-0.0535,-0.0562,-0.0544,-0.0511,-0.0498,-0.0414,-0.0375,-0.0225,-0.0117,-0.0001,0.0141,0.0156,0.0238,0.0267,0.0222,0.0215,0.0254,0.025,0.0275,0.0275,0.0274,0.0274,0,-0.0466,-0.0481,-0.0527,-0.0555,-0.0571,-0.0601,-0.0624,-0.0631,-0.0593,-0.0571,-0.0555,-0.0439,-0.0296,-0.0143,0.0044,0.0124,0.0265,0.0313,0.0241,0.0265,0.0311,0.0304,0.0387,0.0387,0.0388,0.0388,0.0388,0,-0.0485,-0.0513,-0.0571,-0.0607,-0.0627,-0.0669,-0.0693,-0.0679,-0.0678,-0.0605,-0.0591,-0.0457,-0.0362,-0.0103,0.0049,0.0265,0.0296,0.0353,0.0339,0.0304,0.0325,0.0317,0.031,0.0389,0.0389,0.0389,0.0389,0,-0.0521,-0.0544,-0.0582,-0.0657,-0.0702,-0.0748,-0.0777,-0.078,-0.0743,-0.0713,-0.0599,-0.0458,-0.0295,-0.01,0.0068,0.0221,0.0306,0.0358,0.0358,0.0346,0.0308,0.0326,0.0319,0.0391,0.039,0.039,0.039,0,-0.0545,-0.0582,-0.0634,-0.0696,-0.0761,-0.0801,-0.0814,-0.0791,-0.0778,-0.0683,-0.0647,-0.0457,-0.0347,-0.0122,0.0033,0.0182,0.0215,0.0248,0.0255,0.0255,0.019,0.0121,0.0173,0,0,0,0,0,-0.0559,-0.0605,-0.067,-0.0736,-0.0799,-0.083,-0.0856,-0.085,-0.0812,-0.0733,-0.0683,-0.0521,-0.0271,-0.0163,-0.0013,0.0022,0.0221,0.0199,0.0257,0.0399,0.0397,0.0342,0,0,0,0,0,0,-0.057,-0.0637,-0.067,-0.0752,-0.08,-0.0861,-0.0874,-0.0849,-0.0793,-0.073,-0.059,-0.0504,-0.0259,-0.0351,-0.0014,0.003,0.0082,0.0321,0.0324,0.04,0.0398,0.0397,0.034,0,0,0,0,0]}]]